カタログに戻る

COSMOS 970 DEB

運用中LEO
NORAD 64965·DEBRIS·🇷🇺 Russia

打ち上げ Dec 21, 1977 から Baikonur Cosmodrome

Loading…

次のパス (今後24時間)

TLE

最新Source: Space-Track

元期: Sep 14, 2026, 08:02 UTC

1 64965U 77121CA  26257.33490153  .00000457  00000-0  42963-3 0  9991
2 64965  65.8149 127.1916 0107788  19.8842 340.6379 13.88402779114608

AllMySatでCOSMOS 970 DEBをリアルタイム追跡

Download on the App Store